San Antonio, TX

1:06 AM CDT on May 28, 2017 (GMT -0500)
San Antonio International

Weather History for KSAT - May, 2012

Change the Weather History Date:

Friday, May 25, 2012

  Actual Average Record
Temperature  
Mean Temperature 84 °F 79 °F  
Max Temperature 94 °F 89 °F 103 °F (1989)
Min Temperature 73 °F 69 °F 58 °F (1947)
Degree Days  
Heating Degree Days 0 0  
Month to date heating degree days 0 0  
Since 1 July heating degree days 1130 1494  
Cooling Degree Days 19 14  
Month to date cooling degree days 305 282  
Year to date cooling degree days 748 541  
Growing Degree Days 25 (Base 50)    
Moisture  
Dew Point 71 °F    
Average Humidity 71    
Maximum Humidity 93    
Minimum Humidity 49    
Precipitation  
Precipitation 0.00 in 0.14 in 9.87 in (2013)
Month to date precipitation 9.84 3.11  
Year to date precipitation 22.74 11.07  
Snow  
Snow 0.00 in - - ()
Month to date snowfall 0.0  
Since 1 July snowfall T  
Snow Depth 0.00 in    
Sea Level Pressure  
Sea Level Pressure 29.80 in    
Wind  
Wind Speed 15 mph (SE)    
Max Wind Speed 24 mph    
Max Gust Speed 32 mph    
Visibility 9 miles    
Events      
T = Trace of Precipitation, MM = Missing Value Source: NWS Daily Summary

Daily Weather History Graph

Daily Weather History Graph

Search for Another Location

Airport or City:

Trip Planner

Search our weather history database for the weather conditions in past years. The results will help you decide how hot, cold, wet, or windy it might be!

Date:

Astronomy

May. 25, 2012 Rise Set
Actual Time 6:36 AM CDT 8:25 PM CDT
Civil Twilight 6:09 AM CDT 8:52 PM CDT
Nautical Twilight 5:37 AM CDT 9:24 PM CDT
Astronomical Twilight 5:03 AM CDT 9:58 PM CDT
Moon 10:31 AM CDT (5/25) No Moon Set
Length of Visible Light 14h 42m
Length of Day
13h 49m
Waxing Crescent, 20% of the Moon is Illuminated
May 25
Waxing Crescent
May 28
First Quarter
Jun 4
Full
Jun 11
Last Quarter
Jun 19
New

Hourly Weather History & Observations

Time (CDT) Temp. Heat Index Dew Point Humidity Pressure Visibility Wind Dir Wind Speed Gust Speed Precip Events Conditions
12:53 AM 77.0 °F - 71.1 °F 82% 29.74 in 10.0 mi SSE 12.7 mph - N/A   Overcast
1:53 AM 75.9 °F - 71.1 °F 85% 29.73 in 10.0 mi SSE 15.0 mph - N/A   Overcast
2:53 AM 75.9 °F - 70.0 °F 82% 29.73 in 9.0 mi SSE 12.7 mph - N/A   Overcast
3:53 AM 73.9 °F - 71.1 °F 91% 29.73 in 9.0 mi SSE 10.4 mph - N/A   Mostly Cloudy
4:53 AM 73.9 °F - 71.1 °F 91% 29.73 in 8.0 mi SSE 9.2 mph - N/A   Mostly Cloudy
5:53 AM 75.0 °F - 71.1 °F 87% 29.74 in 8.0 mi SSE 9.2 mph - N/A   Overcast
6:53 AM 75.0 °F - 71.1 °F 87% 29.77 in 7.0 mi SSE 11.5 mph - N/A   Overcast
7:53 AM 75.9 °F - 70.0 °F 82% 29.79 in 7.0 mi SSE 13.8 mph - N/A   Overcast
8:53 AM 78.1 °F - 71.1 °F 79% 29.81 in 7.0 mi South 13.8 mph 21.9 mph N/A   Mostly Cloudy
9:27 AM 78.8 °F - 69.8 °F 74% 29.87 in 8.0 mi South 17.3 mph 27.6 mph N/A   Scattered Clouds
9:53 AM 81.0 °F 84.4 °F 70.0 °F 69% 29.82 in 8.0 mi SSE 19.6 mph 25.3 mph N/A   Scattered Clouds
10:53 AM 82.9 °F 87.0 °F 70.0 °F 65% 29.82 in 8.0 mi South 12.7 mph - N/A   Scattered Clouds
11:53 AM 84.9 °F 89.4 °F 70.0 °F 61% 29.82 in 10.0 mi SSE 13.8 mph 24.2 mph N/A   Partly Cloudy
12:53 PM 89.1 °F 95.0 °F 71.1 °F 55% 29.81 in 10.0 mi SE 16.1 mph 19.6 mph N/A   Partly Cloudy
1:53 PM 91.0 °F 96.6 °F 70.0 °F 50% 29.81 in 10.0 mi South 12.7 mph 24.2 mph N/A   Clear
2:53 PM 91.9 °F 97.4 °F 70.0 °F 48% 29.78 in 10.0 mi SE 18.4 mph 24.2 mph N/A   Partly Cloudy
3:53 PM 91.9 °F 97.4 °F 70.0 °F 48% 29.78 in 10.0 mi SE 19.6 mph 26.5 mph N/A   Scattered Clouds
4:53 PM 93.0 °F 100.1 °F 71.1 °F 49% 29.78 in 10.0 mi SE 18.4 mph 25.3 mph N/A   Mostly Cloudy
5:53 PM 90.0 °F 95.4 °F 70.0 °F 52% 29.79 in 10.0 mi SE 16.1 mph - N/A   Mostly Cloudy
6:53 PM 87.1 °F 92.8 °F 71.1 °F 59% 29.81 in 10.0 mi SE 18.4 mph 25.3 mph N/A   Mostly Cloudy
7:53 PM 84.0 °F 89.6 °F 72.0 °F 67% 29.82 in 10.0 mi SE 20.7 mph 25.3 mph N/A   Overcast
8:53 PM 81.0 °F 85.2 °F 72.0 °F 74% 29.84 in 10.0 mi ESE 12.7 mph - N/A   Overcast
9:14 PM 80.6 °F 84.6 °F 71.6 °F 74% 29.90 in 10.0 mi ESE 13.8 mph 23.0 mph N/A   Overcast
9:53 PM 80.1 °F 83.8 °F 72.0 °F 76% 29.87 in 10.0 mi ESE 23.0 mph 26.5 mph N/A   Overcast
10:53 PM 79.0 °F - 71.1 °F 77% 29.91 in 10.0 mi SE 18.4 mph 25.3 mph N/A   Mostly Cloudy
11:53 PM 78.1 °F - 71.1 °F 79% 29.93 in 10.0 mi SE 17.3 mph 25.3 mph N/A   Overcast